Location: ??????
(55.8274°N, 37.9338°E)
Time: 05:21:03
(UTC+00:00)

Cosmos 1151 Rocket - Visible Passes

Search period start: 16 July 2024 00:00
Search period end: 26 July 2024 00:00
Orbit: 588 x 611 km, 82.5° (Epoch: 15 July)

Date Brightness Start Highest point End Pass type
(mag) Time Alt. Az. Time Alt. Az. Time Alt. Az.
16 Jul 5.5 21:52:34 10° NNE 21:55:31 17° ENE 21:58:26 10° E visible
16 Jul 3.0 23:29:14 10° NNW 23:33:35 82° W 23:37:55 10° S visible
17 Jul 5.1 22:03:25 10° N 22:06:55 23° ENE 22:10:26 10° ESE visible
17 Jul 3.2 23:40:28 10° NNW 23:44:44 56° W 23:48:59 10° S visible
18 Jul 4.6 22:14:21 10° N 22:18:17 32° ENE 22:22:12 10° SE visible
18 Jul 3.7 23:51:48 10° NNW 23:55:50 39° W 23:59:52 10° SSW visible
19 Jul 4.0 22:25:24 10° N 22:29:36 45° ENE 22:33:46 10° SE visible
20 Jul 4.2 00:03:12 10° NNW 00:06:52 27° W 00:10:32 10° SW visible
20 Jul 5.7 21:00:35 10° NNE 21:02:28 12° NE 21:04:21 10° E visible
20 Jul 3.4 22:36:31 10° N 22:40:50 65° ENE 22:44:57 11° SSE visible
21 Jul 4.7 00:14:46 10° NW 00:17:53 19° W 00:20:59 10° SW visible
21 Jul 5.5 21:11:05 10° NNE 21:13:55 17° ENE 21:16:47 10° E visible
21 Jul 3.0 22:47:40 10° NNW 22:52:03 87° W 22:55:44 14° S visible
22 Jul 5.1 21:21:53 10° N 21:25:21 22° ENE 21:28:48 10° ESE visible
22 Jul 3.2 22:58:54 10° NNW 23:03:11 60° W 23:06:31 16° S visible
23 Jul 4.6 21:32:49 10° N 21:36:42 30° ENE 21:40:35 10° SE visible
23 Jul 3.7 23:10:12 10° NNW 23:14:18 41° W 23:17:21 16° SSW visible
24 Jul 4.0 21:43:50 10° N 21:48:01 42° ENE 21:51:28 14° SE visible
24 Jul 4.2 23:21:35 10° NNW 23:25:20 29° W 23:28:11 15° SW visible
25 Jul 5.6 20:19:09 10° NNE 20:20:50 12° NE 20:22:31 10° ENE visible
25 Jul 3.4 21:54:55 10° N 21:59:16 61° ENE 22:02:19 19° SSE visible
25 Jul 4.7 23:33:06 10° NW 23:36:20 21° W 23:39:02 12° SW visible
